Weather History for Oskaloosa, IA

Change the Weather History Date:

Friday, April 12, 2013

  Actual Average (KOTM) Record (KOTM)
Temperature  
Mean Temperature 36 °F 50 °F  
Max Temperature 40 °F 61 °F 88 °F (1930)
Min Temperature 34 °F 38 °F 19 °F (1940)
Degree Days  
Heating Degree Days 28 16  
Month to date heating degree days 212  
Since 1 July heating degree days 5908  
Cooling Degree Days 0 0  
Month to date cooling degree days 0  
Year to date cooling degree days 1  
Moisture  
Dew Point 31 °F    
Average Humidity 79    
Maximum Humidity 92    
Minimum Humidity 69    
Precipitation  
Precipitation 0.00 in 0.11 in 0.82 in (1912)
Month to date precipitation 1.17  
Year to date precipitation 5.59  
Sea Level Pressure  
Sea Level Pressure 29.77 in    
Wind  
Wind Speed 16 mph (WNW)    
Max Wind Speed 25 mph    
Max Gust Speed 29 mph    
Visibility 10 miles    
Events      
T = Trace of Precipitation, MM = Missing Value Source: NWS Daily Summary

Daily Weather History Graph

Daily Weather History Graph

Search for Another Location

Airport:

Trip Planner

Search our weather history database for the weather conditions in past years. The results will help you decide how hot, cold, wet, or windy it might be!

Date:

Astronomy

Apr. 12, 2013 Rise Set
Actual Time 6:34 AM CDT 7:47 PM CDT
Civil Twilight 6:06 AM CDT 8:15 PM CDT
Nautical Twilight 5:32 AM CDT 8:49 PM CDT
Astronomical Twilight 4:56 AM CDT 9:25 PM CDT
Moon 7:43 AM CDT (4/12) 10:19 PM CDT (4/12)
Length of Visible Light 14h 09m
Length of Day
13h 12m
Waxing Crescent, 5% of the Moon is Illuminated
Apr 12
Waxing Crescent
Apr 18
First Quarter
Apr 25
Full
May 2
Last Quarter
May 9
New

Hourly Weather History & Observations

Time (CDT) Temp. Windchill Dew Point Humidity Pressure Visibility Wind Dir Wind Speed Gust Speed Precip Events Conditions
12:15 AM 34.9 °F 25.3 °F 30.9 °F 85% 29.63 in 10.0 mi WSW 15.0 mph - N/A   Overcast
12:35 AM 35.1 °F 26.9 °F 31.1 °F 85% 29.62 in 10.0 mi WSW 11.5 mph - N/A   Overcast
12:55 AM 35.1 °F 25.9 °F 31.8 °F 88% 29.63 in 10.0 mi WSW 13.8 mph - N/A   Overcast
1:15 AM 35.2 °F 25.8 °F 32.0 °F 88% 29.63 in 10.0 mi WSW 15.0 mph - N/A   Overcast
1:35 AM 35.6 °F 26.6 °F 32.0 °F 87% 29.63 in 10.0 mi WSW 13.8 mph - N/A   Overcast
1:55 AM 35.6 °F 25.5 °F 32.0 °F 87% 29.62 in 10.0 mi WSW 17.3 mph - N/A   Overcast
2:15 AM 35.6 °F 26.6 °F 32.0 °F 87% 29.62 in 10.0 mi West 13.8 mph - N/A   Overcast
2:35 AM 35.8 °F 27.3 °F 32.0 °F 86% 29.62 in 10.0 mi West 12.7 mph - N/A   Overcast
2:55 AM 35.6 °F 26.2 °F 32.0 °F 87% 29.62 in 10.0 mi West 15.0 mph 20.7 mph N/A   Overcast
3:15 AM 35.6 °F 25.5 °F 32.0 °F 87% 29.62 in 10.0 mi West 17.3 mph 20.7 mph N/A   Overcast
3:35 AM 35.6 °F 25.5 °F 31.8 °F 86% 29.62 in 10.0 mi West 17.3 mph 23.0 mph N/A   Overcast
3:55 AM 35.4 °F 25.6 °F 31.6 °F 86% 29.62 in 10.0 mi West 16.1 mph 24.2 mph N/A   Overcast
4:15 AM 35.1 °F 24.1 °F 31.5 °F 87% 29.62 in 10.0 mi West 19.6 mph 23.0 mph N/A   Overcast
4:35 AM 34.7 °F 24.3 °F 31.6 °F 89% 29.62 in 5.0 mi West 17.3 mph 25.3 mph N/A   Light Drizzle
4:55 AM 34.2 °F 24.0 °F 32.0 °F 92% 29.62 in 4.0 mi West 16.1 mph 21.9 mph N/A   Light Drizzle
5:15 AM 34.0 °F 24.2 °F 32.0 °F 92% 29.63 in 5.0 mi West 15.0 mph - N/A   Overcast
5:35 AM 34.0 °F 24.6 °F 32.0 °F 92% 29.63 in 4.0 mi West 13.8 mph - N/A   Overcast
5:55 AM 34.2 °F 25.2 °F 32.0 °F 92% 29.63 in 4.0 mi West 12.7 mph - N/A   Light Drizzle
6:15 AM 34.7 °F 24.7 °F 32.5 °F 92% 29.63 in 7.0 mi West 16.1 mph - N/A   Overcast
6:35 AM 34.9 °F 26.6 °F 32.5 °F 91% 29.64 in 10.0 mi WNW 11.5 mph - N/A   Overcast
6:55 AM 35.1 °F 26.4 °F 32.7 °F 91% 29.65 in 10.0 mi WNW 12.7 mph 21.9 mph N/A   Overcast
7:15 AM 35.2 °F 23.8 °F 32.0 °F 88% 29.66 in 10.0 mi WNW 21.9 mph - N/A   Overcast
7:35 AM 35.2 °F 23.8 °F 31.6 °F 87% 29.67 in 10.0 mi WNW 21.9 mph 25.3 mph N/A   Overcast
7:55 AM 35.4 °F 24.6 °F 31.1 °F 84% 29.68 in 10.0 mi WNW 19.6 mph 24.2 mph N/A   Overcast
8:15 AM 35.8 °F 25.1 °F 31.5 °F 84% 29.69 in 10.0 mi WNW 19.6 mph 23.0 mph N/A   Overcast
8:35 AM 36.0 °F 25.6 °F 31.1 °F 82% 29.70 in 10.0 mi WNW 18.4 mph 21.9 mph N/A   Overcast
8:55 AM 35.8 °F 24.8 °F 30.6 °F 81% 29.70 in 10.0 mi WNW 20.7 mph 28.8 mph N/A   Overcast
9:15 AM 35.8 °F 25.4 °F 30.4 °F 81% 29.71 in 10.0 mi WNW 18.4 mph - N/A   Overcast
9:55 AM 36.3 °F 25.5 °F 30.6 °F 80% 29.73 in 10.0 mi WNW 20.7 mph 25.3 mph N/A   Overcast
10:15 AM 36.5 °F 25.7 °F 30.4 °F 78% 29.74 in 10.0 mi WNW 20.7 mph 27.6 mph N/A   Overcast
10:35 AM 36.5 °F 25.7 °F 30.4 °F 78% 29.75 in 10.0 mi WNW 20.7 mph - N/A   Overcast
10:55 AM 36.9 °F 26.5 °F 30.2 °F 77% 29.76 in 10.0 mi WNW 19.6 mph - N/A   Overcast
11:15 AM 37.4 °F 27.5 °F 30.4 °F 76% 29.77 in 10.0 mi NW 18.4 mph 26.5 mph N/A   Overcast
11:35 AM 38.7 °F 29.1 °F 30.7 °F 73% 29.78 in 10.0 mi NW 18.4 mph - N/A   Overcast
11:55 AM 38.1 °F 29.5 °F 30.7 °F 75% 29.78 in 10.0 mi NW 15.0 mph - N/A   Overcast
12:15 PM 37.8 °F 27.4 °F 30.2 °F 74% 29.79 in 10.0 mi NW 20.7 mph 26.5 mph N/A   Overcast
12:35 PM 38.1 °F 27.9 °F 30.2 °F 73% 29.80 in 10.0 mi WNW 20.7 mph 27.6 mph N/A   Overcast
12:55 PM 39.0 °F 28.5 °F 30.9 °F 73% 29.80 in 10.0 mi WNW 23.0 mph 28.8 mph N/A   Overcast
1:15 PM 37.4 °F 25.9 °F 30.7 °F 77% 29.82 in 10.0 mi WNW 25.3 mph 28.8 mph N/A   Overcast
1:35 PM 37.2 °F 27.0 °F 30.6 °F 77% 29.82 in 10.0 mi WNW 19.6 mph 26.5 mph N/A   Overcast
1:55 PM 37.8 °F 28.6 °F 31.1 °F 77% 29.83 in 10.0 mi West 16.1 mph 25.3 mph N/A   Overcast
2:15 PM 38.1 °F 28.1 °F 31.5 °F 77% 29.83 in 10.0 mi WNW 19.6 mph - N/A   Overcast
2:35 PM 39.0 °F 29.6 °F 31.8 °F 75% 29.84 in 10.0 mi West 18.4 mph - N/A   Overcast
2:55 PM 39.6 °F 30.6 °F 32.0 °F 74% 29.84 in 10.0 mi WNW 17.3 mph 24.2 mph N/A   Overcast
3:15 PM 39.2 °F 29.6 °F 31.6 °F 74% 29.85 in 10.0 mi WNW 19.6 mph - N/A   Overcast
3:35 PM 39.4 °F 30.1 °F 31.3 °F 73% 29.85 in 10.0 mi WNW 18.4 mph - N/A   Overcast
3:55 PM 39.2 °F 30.8 °F 31.1 °F 73% 29.85 in 10.0 mi West 15.0 mph 19.6 mph N/A   Overcast
4:15 PM 39.6 °F 30.3 °F 30.4 °F 70% 29.86 in 10.0 mi WNW 18.4 mph 21.9 mph N/A   Overcast
4:35 PM 39.7 °F 30.3 °F 31.1 °F 71% 29.86 in 10.0 mi West 19.6 mph 24.2 mph N/A   Overcast
4:55 PM 39.6 °F 30.6 °F 30.2 °F 69% 29.86 in 10.0 mi West 17.3 mph - N/A   Overcast
5:15 PM 39.0 °F 29.3 °F 30.2 °F 71% 29.87 in 10.0 mi WNW 19.6 mph 23.0 mph N/A   Overcast
5:35 PM 38.8 °F 30.0 °F 29.5 °F 69% 29.87 in 10.0 mi West 16.1 mph 23.0 mph N/A   Overcast
5:55 PM 38.7 °F 30.5 °F 29.8 °F 71% 29.88 in 10.0 mi West 13.8 mph - N/A   Overcast
6:15 PM 38.7 °F 30.9 °F 29.8 °F 71% 29.88 in 10.0 mi WNW 12.7 mph - N/A   Overcast
6:35 PM 38.5 °F 29.9 °F 29.1 °F 69% 29.88 in 10.0 mi West 15.0 mph - N/A   Overcast
6:55 PM 37.9 °F 28.5 °F 29.7 °F 72% 29.89 in 10.0 mi West 17.3 mph - N/A   Overcast
7:15 PM 37.4 °F 27.5 °F 29.5 °F 73% 29.89 in 10.0 mi West 18.4 mph 23.0 mph N/A   Overcast
7:35 PM 37.0 °F 29.3 °F 30.0 °F 76% 29.89 in 10.0 mi West 11.5 mph - N/A   Overcast
7:55 PM 36.9 °F 28.7 °F 29.7 °F 75% 29.90 in 10.0 mi West 12.7 mph - N/A   Overcast
8:15 PM 36.7 °F 27.6 °F 29.8 °F 76% 29.90 in 10.0 mi West 15.0 mph - N/A   Overcast
8:35 PM 36.7 °F 28.0 °F 29.3 °F 75% 29.90 in 10.0 mi West 13.8 mph - N/A   Overcast
8:55 PM 36.7 °F 28.4 °F 29.1 °F 74% 29.91 in 10.0 mi West 12.7 mph - N/A   Overcast
9:15 PM 36.5 °F 28.2 °F 29.7 °F 76% 29.92 in 10.0 mi West 12.7 mph - N/A   Overcast
9:35 PM 36.5 °F 28.7 °F 29.8 °F 77% 29.92 in 10.0 mi WNW 11.5 mph - N/A   Overcast
9:55 PM 36.1 °F 27.7 °F 30.2 °F 79% 29.92 in 10.0 mi NW 12.7 mph 18.4 mph N/A   Overcast
10:15 PM 35.6 °F 25.9 °F 27.5 °F 72% 29.92 in 10.0 mi NW 16.1 mph 21.9 mph N/A   Overcast
10:35 PM 35.2 °F 25.8 °F 27.9 °F 74% 29.94 in 10.0 mi WNW 15.0 mph - N/A   Overcast
10:55 PM 35.1 °F 25.5 °F 27.1 °F 73% 29.94 in 10.0 mi NW 15.0 mph 21.9 mph N/A   Overcast
11:15 PM 34.7 °F 25.1 °F 26.6 °F 72% 29.94 in 10.0 mi WNW 15.0 mph - N/A   Overcast
11:35 PM 34.2 °F 26.2 °F 27.5 °F 77% 29.95 in 10.0 mi NW 10.4 mph - N/A   Overcast
11:55 PM 34.0 °F 25.0 °F 27.7 °F 78% 29.96 in 10.0 mi WNW 12.7 mph - N/A   Overcast